User: anonymous   Login
Location: Caltech
(34.1382°N, 118.1253°W)
Time: 01:46:57
(UTC-07:00)
Language:

Cosmos 1937 Rocket - Orbit

View from above orbital plane
View from above orbital plane
View from above satellite
View from above satellite

Ground track
Ground track

The orbit data is extracted from the following two-line orbital elements,

1 19039U 88029B   15115.09354334  .00000297  00000-0  10604-3 0  9995
2 19039 074.0470 303.1792 0024453 309.3689 189.2378 14.38197452418125
Epoch (UTC): 25 April 2015 02:14:42
Eccentricity: 0.0024453
inclination: 74.0470°
perigee height: 747 km
apogee height: 782 km
right ascension of ascending node: 303.1792°
argument of perigee: 309.3689°
revolutions per day: 14.38197452
mean anomaly at epoch: 189.2378°
orbit number at epoch: 41812

The dashed part of the orbit path shows where the satellite is in the earth's shadow,  

DLR